Regional Weather Roundup
Issued by NWS

Home | Current Version | Previous Version | Graphics & Text | Print | Product List | Glossary On
Versions: 1 2 3 4 5 6 7 8 9 10 11 12 13 14 15 16 17 18 19 20 21 22 23 24 25 26 27 28 29 30 31 32 33 34 35 36 37 38 39 40 41 42 43 44 45 46 47 48 49 50
000
ASUS43 KLOT 291100
RWRIL

ILLINOIS REGIONAL WEATHER ROUNDUP
NATIONAL WEATHER SERVICE CHICAGO/ROMEOVILLE IL
600 AM CDT SUN MAR 29 2015

NOTE: "FAIR" INDICATES FEW OR NO CLOUDS BELOW 12,000 FEET WITH NO
SIGNIFICANT WEATHER AND/OR OBSTRUCTIONS TO VISIBILITY.

* THESE STATIONS ARE NOT UNDER NWS QUALITY CONTROL. THEY ALSO MAY NOT
  REPORT WEATHER SUCH AS PRECIPITATION OR FOG.

ILZ001-002-007-009-015-016-024-291200-
NORTHWEST ILLINOIS

CITY           SKY/WX    TMP DP  RH WIND       PRES   REMARKS
MOLINE         CLEAR     33  19  56 S10       30.08R WCI  25
$$

ILZ003-004-008-010-011-017-018-291200-
NORTH CENTRAL ILLINOIS

CITY           SKY/WX    TMP DP  RH WIND       PRES   REMARKS
ROCKFORD       NOT AVBL
$$

ILZ005-006-012>014-019>023-291200-
NORTHEAST ILLINOIS

CITY           SKY/WX    TMP DP  RH WIND       PRES   REMARKS
CHICAGO-OHARE  MOCLDY    30  14  51 S13       30.13F WCI  20
CHICAGO-MIDWAY MOCLDY    31  15  52 S10       30.16F WCI  22
AURORA         PTCLDY    29  17  61 S13       30.12F WCI  19
WAUKEGAN       NOT AVBL
DUPAGE AIRPORT PTCLDY    28  16  60 S13       30.12F WCI  17
WHEELING       PTCLDY    29  14  53 S9        30.14F WCI  20
NORTHERLY ISL    N/A     31  13  47 S14         N/A  WCI  21
$$

LMZ740>746-291200-
SOUTHERN LAKE MICHIGAN

STATION/POSITION SKY/WX   TEMP    WIND        PRES    VSBY  WAVE
                          AIR SEA DIR/SP/G                  HT/PER
                          (F)     (DEG/KT/KT) (MB)    (MI)  (FT/S)
HARRISON CRIB              31     180/ 25/ 29   N/A
BURNHAM HARBOR             31     190/  8/ 12   N/A
BURNS HARBOR               29     180/ 11/ 20 1022.7F
MICHIGAN CITY              28     150/ 11/ 15   N/A
$$

ILZ025>027-034>036-040-047-049-050-058-095>099-291200-
WEST-CENTRAL ILLINOIS

CITY           SKY/WX    TMP DP  RH WIND       PRES   REMARKS
$$

ILZ028>032-037-038-041>044-048-051>054-059>061-291200-
CENTRAL ILLINOIS

CITY           SKY/WX    TMP DP  RH WIND       PRES   REMARKS
PEORIA         NOT AVBL
SPRINGFIELD    CLEAR     32  21  64 S16       30.16F WCI  21
TAYLORVILLE    NOT AVBL
$$

ILZ033-039-045-046-055>057-062-063-291200-
EAST-CENTRAL ILLINOIS

CITY           SKY/WX    TMP DP  RH WIND       PRES   REMARKS
CHAMPAIGN      CLEAR     28  20  71 S12       30.21S WCI  18
MATTOON        CLEAR     30  19  63 S13       30.22S WCI  20
$$

ILZ079-100>102-291200-
SOUTHWEST ILLINOIS

CITY           SKY/WX    TMP DP  RH WIND       PRES   REMARKS
CAHOKIA*       CLEAR     33  20  58 SE8       30.19F WCI  26
$$

ILZ064>066-069>071-074>076-080>082-084>086-088>090-092>094-291200-
SOUTH-CENTRAL ILLINOIS

CITY           SKY/WX    TMP DP  RH WIND       PRES   REMARKS
CARBONDALE     CLEAR     30  18  60 S6        30.25R WCI  24
$$

ILZ067-068-072-073-078-083-087-091-291200-
SOUTHEAST ILLINOIS

CITY           SKY/WX    TMP DP  RH WIND       PRES   REMARKS
LAWRENCEVILLE  CLEAR     28  20  71 S8        30.28S WCI  20
$$

ABBREVIATIONS USED IN REMARKS
   TC - TEMPERATURE IN CELSIUS
  WCI - WIND CHILL INDEX
   HX - HEAT INDEX
  VSB - VISIBILITY
$$




USA.gov is the U.S. government's official web portal to all federal, state and local government web resources and services.